GW3615 Weather Reports


time (UTC)temp
F
wind
direction
speed
knots
gust
knots
rain 1hr
in
rain 24hr
in
rain mn
in
humidity
%
barometer
mb
20260504222727 83 165 0.0 0.9 0.00 0.00 0.00 86 1007.5
20260504222230 83 165 0.0 0.0 0.00 0.00 0.00 86 1007.1
20260504221728 83 165 0.0 0.0 0.00 0.00 0.00 85 1007.5
20260504221229 83 165 0.0 0.0 0.00 0.00 0.00 85 1007.5
20260504220727 84 165 0.0 0.9 0.00 0.00 0.00 85 1007.5
20260504220227 84 164 0.0 0.0 0.00 0.00 0.00 85 1007.1
20260504215729 84 165 0.9 0.9 0.00 0.00 0.00 85 1007.5
20260504215227 84 168 0.9 1.7 0.00 0.00 0.00 85 1007.5
20260504214728 84 167 1.7 2.6 0.00 0.00 0.00 85 1007.1
20260504214227 84 186 0.9 2.6 0.00 0.00 0.00 85 1007.5
20260504213728 84 169 0.9 2.6 0.00 0.00 0.00 85 1007.1
20260504213228 84 211 0.9 2.6 0.00 0.00 0.00 85 1007.5
20260504212727 84 158 0.9 2.6 0.00 0.00 0.00 85 1007.5
20260504212229 84 162 1.7 1.7 0.00 0.00 0.00 85 1007.5
20260504211727 84 163 1.7 2.6 0.00 0.00 0.00 85 1007.5
20260504211232 84 191 0.9 2.6 0.00 0.00 0.00 85 1007.5
20260504210727 84 122 0.9 2.6 0.00 0.00 0.00 85 1007.1
20260504210229 84 184 0.0 0.9 0.00 0.00 0.00 85 1007.5
20260504205728 84 156 1.7 4.3 0.00 0.00 0.00 85 1007.1
20260504205228 84 156 2.6 4.3 0.00 0.00 0.00 85 1007.1
20260504204730 84 186 2.6 2.6 0.00 0.00 0.00 85 1007.5
20260504204227 84 141 0.9 4.3 0.00 0.00 0.00 85 1007.5
20260504203727 84 168 2.6 4.3 0.00 0.00 0.00 85 1007.5
20260504203229 84 142 0.9 4.3 0.00 0.00 0.00 85 1007.5
20260504202727 84 177 0.9 4.3 0.00 0.00 0.00 85 1007.5
20260504202231 84 165 0.9 4.3 0.00 0.00 0.00 85 1007.5
20260504201728 84 110 1.7 4.3 0.00 0.00 0.00 85 1007.5
20260504201227 84 193 1.7 2.6 0.00 0.00 0.00 84 1007.5
20260504200729 84 184 0.0 2.6 0.00 0.00 0.00 84 1007.5
20260504200229 84 153 0.9 4.3 0.00 0.00 0.00 84 1007.8
20260504195731 84 183 1.7 4.3 0.00 0.00 0.00 84 1007.8
20260504195228 84 193 1.7 2.6 0.00 0.00 0.00 84 1007.8
20260504194727 84 222 0.9 1.7 0.00 0.00 0.00 84 1007.8
20260504194228 84 164 0.9 4.3 0.00 0.00 0.00 84 1007.5
20260504193727 84 154 3.5 4.3 0.00 0.00 0.00 84 1007.8
20260504193227 84 169 2.6 2.6 0.00 0.00 0.00 84 1007.8
20260504192727 84 167 1.7 2.6 0.00 0.00 0.00 84 1007.5
20260504192227 84 186 0.9 2.6 0.00 0.00 0.00 83 1007.5
20260504191727 84 168 0.0 0.9 0.00 0.00 0.00 83 1007.5
20260504191227 84 171 0.0 1.7 0.00 0.00 0.00 84 1007.5
20260504190729 84 198 2.6 5.2 0.00 0.00 0.00 83 1007.5
20260504190228 84 206 0.0 1.7 0.00 0.00 0.00 83 1007.8
20260504185727 84 112 0.9 1.7 0.00 0.00 0.00 83 1007.5
20260504185231 84 118 0.0 0.9 0.00 0.00 0.00 83 1007.5
20260504184728 84 105 0.0 1.7 0.00 0.00 0.00 82 1007.5
20260504184229 84 99 0.0 0.9 0.00 0.00 0.00 82 1007.5
20260504183727 84 100 0.9 2.6 0.00 0.00 0.00 83 1007.5
20260504183228 84 157 1.7 2.6 0.00 0.00 0.00 83 1007.8
20260504182730 84 114 0.0 0.9 0.00 0.00 0.00 82 1007.5
20260504182229 85 202 0.9 1.7 0.00 0.00 0.00 82 1007.5
20260504181729 85 148 0.0 1.7 0.00 0.00 0.00 82 1007.5
20260504181227 84 91 0.0 1.7 0.00 0.00 0.00 82 1007.5
20260504180729 85 165 2.6 4.3 0.00 0.00 0.00 82 1007.8
20260504180228 85 196 0.9 1.7 0.00 0.00 0.00 82 1007.8
20260504175729 85 167 0.9 0.9 0.00 0.00 0.00 82 1007.8
20260504175227 85 136 0.0 0.9 0.00 0.00 0.00 82 1007.8
20260504174727 85 137 0.9 0.9 0.00 0.00 0.00 82 1007.8
20260504174228 85 164 0.0 1.7 0.00 0.00 0.00 82 1007.8
20260504173727 85 184 0.9 2.6 0.00 0.00 0.00 82 1007.8
20260504173227 85 196 0.9 2.6 0.00 0.00 0.00 82 1007.8
20260504172728 85 175 1.7 4.3 0.00 0.00 0.00 82 1008.1
20260504172229 85 167 2.6 2.6 0.00 0.00 0.00 82 1008.1
20260504171727 85 163 0.9 1.7 0.00 0.00 0.00 82 1008.1
20260504171231 85 172 0.9 1.7 0.00 0.00 0.00 81 1007.8
20260504170731 85 191 0.9 1.7 0.00 0.00 0.00 81 1007.8
20260504170230 85 143 0.9 4.3 0.00 0.00 0.00 81 1007.8
20260504160229 85 130 1.7 1.7 0.00 0.00 0.00 81 1007.1
20260504150727 86 84 2.6 4.3 0.00 0.00 0.00 76 1006.1
20260504150228 86 85 0.0 1.7 0.00 0.00 0.00 75 1006.1
20260504141230 86 102 0.0 2.6 0.00 0.00 0.00 72 1005.8
20260504140727 86 123 0.9 1.7 0.00 0.00 0.00 72 1005.4
20260504140228 86 75 0.0 2.6 0.00 0.00 0.00 72 1005.1
20260504130727 87 102 2.6 4.3 0.00 0.00 0.00 69 1004.7
20260504130230 88 101 2.6 6.1 0.00 0.00 0.00 69 1004.4
20260504120228 91 125 0.9 8.7 0.00 0.00 0.00 63 1004.1
20260504110227 93 214 6.1 7.0 0.00 0.00 0.00 54 1004.1
20260504100229 98 168 3.5 7.0 0.00 0.00 0.00 47 1004.4
20260504081730 100 195 2.6 5.2 0.00 0.00 0.00 42 1005.8
20260504081227 100 187 2.6 4.3 0.00 0.00 0.00 42 1005.8
20260504080727 100 243 2.6 7.0 0.00 0.00 0.00 39 1005.8
20260504080229 100 125 3.5 7.0 0.00 0.00 0.00 38 1006.1
20260504070228 99 257 2.6 4.3 0.00 0.00 0.00 44 1006.8
20260504060227 97 196 0.9 2.6 0.00 0.00 0.00 48 1007.8
20260504050727 95 283 3.5 5.2 0.00 0.00 0.00 51 1008.1
20260504050228 94 280 2.6 5.2 0.00 0.00 0.00 52 1008.1
20260504045727 94 209 1.7 5.2 0.00 0.00 0.00 54 1008.1
20260504044752 93 212 0.9 7.0 0.00 0.00 0.00 55 1008.5
20260504044228 94 230 2.6 8.7 0.00 0.00 0.00 53 1008.5
20260504043728 94 168 2.6 6.1 0.00 0.00 0.00 52 1008.5
20260504043228 95 232 6.1 7.8 0.00 0.00 0.00 52 1008.5
20260504042730 94 234 1.7 5.2 0.00 0.00 0.00 53 1008.5
20260504042229 93 269 2.6 6.1 0.00 0.00 0.00 53 1008.1
20260504041728 93 255 0.9 6.1 0.00 0.00 0.00 56 1008.5
20260504041230 93 307 1.7 4.3 0.00 0.00 0.00 57 1008.5
20260504040727 92 289 3.5 5.2 0.00 0.00 0.00 58 1008.5
20260504040227 92 183 2.6 2.6 0.00 0.00 0.00 59 1008.5
20260504035728 91 250 2.6 4.3 0.00 0.00 0.00 59 1008.5
20260504035227 91 260 3.5 5.2 0.00 0.00 0.00 60 1008.5
20260504034727 91 267 0.9 4.3 0.00 0.00 0.00 61 1008.5
20260504034227 90 258 0.9 2.6 0.00 0.00 0.00 62 1008.5
20260504033727 90 250 1.7 5.2 0.00 0.00 0.00 64 1008.5
20260504033230 90 316 1.7 5.2 0.00 0.00 0.00 64 1008.5
20260504032728 90 327 2.6 4.3 0.00 0.00 0.00 64 1008.8
20260504032228 89 243 0.0 2.6 0.00 0.00 0.00 66 1008.5
20260504031727 88 203 1.7 5.2 0.00 0.00 0.00 67 1008.5
20260504031227 89 283 1.7 4.3 0.00 0.00 0.00 66 1008.5
20260504030727 89 263 1.7 1.7 0.00 0.00 0.00 66 1008.5
20260504030228 89 244 0.9 4.3 0.00 0.00 0.00 67 1008.5
20260504025727 89 266 0.9 4.3 0.00 0.00 0.00 68 1008.5
20260504025228 89 244 1.7 5.2 0.00 0.00 0.00 68 1008.1
20260504024727 88 247 3.5 5.2 0.00 0.00 0.00 74 1007.8
20260504024227 88 147 3.5 5.2 0.00 0.00 0.00 74 1008.1
20260504023727 88 142 3.5 7.0 0.00 0.00 0.00 74 1007.8
20260504023227 88 172 3.5 5.2 0.00 0.00 0.00 74 1007.8
20260504022728 87 212 1.7 4.3 0.00 0.00 0.00 72 1007.8
20260504022228 87 192 0.9 4.3 0.00 0.00 0.00 72 1007.5
20260504021727 86 250 0.0 0.9 0.00 0.00 0.00 72 1007.5
20260504021227 86 251 0.9 0.9 0.00 0.00 0.00 72 1007.5
20260504020727 85 262 0.0 0.9 0.00 0.00 0.00 72 1007.5
20260504020227 85 280 0.9 0.9 0.00 0.00 0.00 72 1007.5
20260504015727 85 281 1.7 1.7 0.00 0.00 0.00 72 1007.1
20260504015227 84 259 0.0 2.6 0.00 0.00 0.00 74 1007.1
20260504014727 84 262 0.0 2.6 0.00 0.00 0.00 77 1007.5
20260504014227 84 269 0.0 0.0 0.00 0.00 0.00 78 1007.1
20260504013728 84 316 0.0 1.7 0.00 0.00 0.00 78 1007.5
20260504013228 84 285 2.6 2.6 0.00 0.00 0.00 78 1007.5
20260504012727 84 294 0.9 2.6 0.00 0.00 0.00 78 1007.5
20260504012227 83 280 0.0 0.9 0.00 0.00 0.00 79 1007.5
20260504011728 83 250 0.0 0.9 0.00 0.00 0.00 80 1007.1
20260504011227 83 258 0.0 1.7 0.00 0.00 0.00 80 1007.1
20260504010727 83 244 0.0 0.9 0.00 0.00 0.00 80 1007.1
20260504010227 83 244 0.0 0.9 0.00 0.00 0.00 80 1007.1
20260504005727 83 240 0.0 0.9 0.00 0.00 0.00 80 1007.1
20260504005227 82 231 0.9 0.9 0.00 0.00 0.00 80 1006.8
20260504004727 82 230 0.9 0.9 0.00 0.00 0.00 80 1006.8
20260504004227 82 232 0.0 0.0 0.00 0.00 0.00 80 1006.8
20260504003727 82 233 0.0 0.0 0.00 0.00 0.00 80 1006.8
20260504003227 82 233 0.0 0.0 0.00 0.00 0.00 80 1006.8
20260504002727 82 254 0.0 0.9 0.00 0.00 0.00 80 1006.8
20260504002227 82 254 0.9 0.9 0.00 0.00 0.00 80 1006.8
20260504001728 82 251 0.0 0.9 0.00 0.00 0.00 80 1006.8
20260504001227 82 251 0.9 0.9 0.00 0.00 0.00 81 1006.8
20260504000728 82 238 0.0 0.9 0.00 0.00 0.00 81 1006.8
20260504000227 82 252 0.0 0.9 0.00 0.00 0.00 81 1006.8
20260503235727 82 254 0.9 1.7 0.00 0.00 0.00 82 1006.4
20260503235228 82 254 0.0 0.9 0.00 0.00 0.00 82 1006.1
20260503234727 82 200 0.0 0.0 0.00 0.00 0.00 82 1006.4
20260503234227 82 199 0.0 0.9 0.00 0.00 0.00 82 1006.4
20260503233728 82 197 0.0 0.9 0.00 0.00 0.00 82 1006.1
20260503233228 82 172 0.0 0.9 0.00 0.00 0.00 82 1006.4
20260503232726 82 172 0.9 0.9 0.00 0.00 0.00 81 1006.1
20260503232228 82 172 0.0 0.0 0.00 0.00 0.00 81 1006.1
20260503231727 82 172 0.9 0.9 0.00 0.00 0.00 80 1005.8
20260503231227 82 171 0.0 0.9 0.00 0.00 0.00 80 1005.8
20260503230728 82 171 0.0 0.0 0.00 0.00 0.00 80 1005.8
20260503230228 82 149 0.0 0.9 0.00 0.00 0.00 80 1005.8
20260503225728 82 203 0.0 0.9 0.00 0.00 0.00 79 1005.8
20260503225227 82 261 0.0 1.7 0.00 0.00 0.00 79 1005.8
20260503224727 82 238 0.9 0.9 0.00 0.00 0.00 79 1005.8
20260503224227 82 262 0.9 1.7 0.00 0.00 0.00 79 1005.8
20260503223727 82 254 0.0 1.7 0.00 0.00 0.00 79 1005.8
20260503223226 82 259 0.0 2.6 0.00 0.00 0.00 78 1005.8